La Push, WA

9:57 AM PDT on August 24, 2016 (GMT -0700)
Quillayute

Weather History for KUIL - December, 2010

Change the Weather History Date:

Thursday, December 23, 2010

  Actual Average Record
Temperature  
Mean Temperature 46 °F 40 °F  
Max Temperature 48 °F 46 °F 57 °F (1999)
Min Temperature 43 °F 35 °F 13 °F (1983)
Degree Days  
Heating Degree Days 19 25  
Month to date heating degree days 567  
Since 1 July heating degree days 2281  
Cooling Degree Days 0 0  
Month to date cooling degree days 0  
Year to date cooling degree days 19  
Moisture  
Dew Point 45 °F    
Average Humidity 95    
Maximum Humidity 100    
Minimum Humidity 82    
Precipitation  
Precipitation 1.92 in 0.41 in 3.08 in (1968)
Month to date precipitation 9.75  
Year to date precipitation 96.30  
Sea Level Pressure  
Sea Level Pressure 29.77 in    
Wind  
Wind Speed 15 mph (SSE)    
Max Wind Speed 25 mph    
Max Gust Speed 46 mph    
Visibility 4 miles    
Events Rain    
T = Trace of Precipitation, MM = Missing Value Source: NWS Daily Summary

Daily Weather History Graph

Daily Weather History Graph

Search for Another Location

Airport or City:

Trip Planner

Search our weather history database for the weather conditions in past years. The results will help you decide how hot, cold, wet, or windy it might be!

Date:

Astronomy

Dec. 23, 2010 Rise Set
Actual Time 8:05 AM PST 4:28 PM PST
Civil Twilight 7:29 AM PST 5:05 PM PST
Nautical Twilight 6:49 AM PST 5:44 PM PST
Astronomical Twilight 6:12 AM PST 6:22 PM PST
Moon 7:40 PM PST (12/23) 9:45 AM PST (12/23)
Length of Visible Light 9h 35m
Length of Day
8h 22m
Waning Gibbous, 92% of the Moon is Illuminated
Dec 23
Waning Gibbous
Dec 27
Last Quarter
Jan 4
New
Jan 12
First Quarter
Jan 19
Full

Hourly Weather History & Observations

Time (PST) Temp. Windchill Dew Point Humidity Pressure Visibility Wind Dir Wind Speed Gust Speed Precip Events Conditions
12:53 AM 45.0 °F 37.4 °F 39.9 °F 82% 29.73 in 10.0 mi SSE 18.4 mph 29.9 mph 0.00 in Rain Light Rain
1:34 AM 44.6 °F 37.8 °F 41.0 °F 87% 29.74 in 9.0 mi SSE 15.0 mph 26.5 mph 0.01 in Rain Light Rain
1:53 AM 44.1 °F 37.1 °F 41.0 °F 89% 29.74 in 10.0 mi SSE 15.0 mph 23.0 mph 0.02 in Rain Light Rain
2:53 AM 44.1 °F 37.1 °F 42.1 °F 93% 29.75 in 6.0 mi SSE 15.0 mph 24.2 mph 0.07 in Rain Light Rain
3:53 AM 43.0 °F 36.0 °F 42.1 °F 97% 29.74 in 5.0 mi SE 13.8 mph 27.6 mph 0.08 in Rain Rain
4:53 AM 43.0 °F 36.8 °F 41.0 °F 93% 29.73 in 5.0 mi SE 11.5 mph 24.2 mph 0.10 in Rain Rain
5:53 AM 44.1 °F 36.5 °F 43.0 °F 96% 29.73 in 4.0 mi SE 17.3 mph 28.8 mph 0.15 in Rain Rain
6:53 AM 45.0 °F 38.5 °F 43.0 °F 93% 29.74 in 3.0 mi SSE 13.8 mph 23.0 mph 0.14 in Rain Rain
7:53 AM 45.0 °F 39.3 °F 44.1 °F 97% 29.74 in 5.0 mi SSE 11.5 mph 20.7 mph 0.21 in Rain Rain
8:27 AM 46.4 °F 40.7 °F 44.6 °F 93% 29.75 in 2.5 mi South 12.7 mph 35.7 mph 0.11 in Rain Rain
8:46 AM 46.4 °F 40.7 °F 44.6 °F 93% 29.76 in 1.8 mi SSE 12.7 mph 26.5 mph 0.18 in Rain Rain
8:53 AM 46.0 °F 39.6 °F 45.0 °F 96% 29.75 in 1.2 mi SW 15.0 mph 21.9 mph 0.28 in Rain Heavy Rain
8:59 AM 46.4 °F 41.1 °F 44.6 °F 93% 29.75 in 2.0 mi SSE 11.5 mph 23.0 mph 0.04 in Rain Light Rain
9:07 AM 46.4 °F 40.1 °F 44.6 °F 93% 29.75 in 3.0 mi SSE 15.0 mph 34.5 mph 0.05 in Rain Light Rain
9:14 AM 46.4 °F 39.8 °F 44.6 °F 93% 29.75 in 2.0 mi SSE 16.1 mph 27.6 mph 0.06 in Rain Light Rain
9:21 AM 46.4 °F 40.1 °F 44.6 °F 93% 29.77 in 1.2 mi SSE 15.0 mph 32.2 mph 0.06 in Rain Light Rain
9:38 AM 46.4 °F 39.8 °F 44.6 °F 93% 29.77 in 1.5 mi SSE 16.1 mph 35.7 mph 0.10 in Rain Light Rain
9:53 AM 46.0 °F 39.9 °F 45.0 °F 96% 29.77 in 1.5 mi SSE 13.8 mph 34.5 mph 0.14 in Rain Light Rain
10:26 AM 46.4 °F 40.4 °F 46.4 °F 100% 29.79 in 2.5 mi SSE 13.8 mph 33.4 mph 0.03 in Rain Light Rain
10:48 AM 46.4 °F 40.1 °F 46.4 °F 100% 29.80 in 1.2 mi SSE 15.0 mph 33.4 mph 0.04 in Rain Light Rain
10:53 AM 46.0 °F 40.2 °F 46.0 °F 100% 29.81 in 1.2 mi SSE 12.7 mph 26.5 mph 0.04 in Rain Light Rain
11:01 AM 46.4 °F 39.8 °F 46.4 °F 100% 29.80 in 1.5 mi SSE 16.1 mph 29.9 mph 0.01 in Rain Light Rain
11:22 AM 46.4 °F 40.1 °F 46.4 °F 100% 29.80 in 2.5 mi SSE 15.0 mph 27.6 mph 0.02 in Rain Light Rain
11:32 AM 46.4 °F 39.8 °F 46.4 °F 100% 29.80 in 1.8 mi SSE 16.1 mph 26.5 mph 0.03 in Rain Light Rain
11:50 AM 46.4 °F 39.2 °F 46.4 °F 100% 29.79 in 2.0 mi SSE 18.4 mph 31.1 mph 0.04 in Rain Light Rain
11:53 AM 46.0 °F 39.9 °F 46.0 °F 100% 29.80 in 2.0 mi SSE 13.8 mph 31.1 mph 0.04 in Rain Light Rain
12:02 PM 46.4 °F 40.4 °F 46.4 °F 100% 29.79 in 1.8 mi SSE 13.8 mph 32.2 mph 0.00 in Rain Light Rain
12:06 PM 46.4 °F 41.1 °F 46.4 °F 100% 29.79 in 2.0 mi SSE 11.5 mph 32.2 mph 0.01 in Rain Light Rain
12:32 PM 46.4 °F 39.8 °F 44.6 °F 93% 29.78 in 3.0 mi SSE 16.1 mph 26.5 mph 0.04 in Rain Light Rain
12:53 PM 46.9 °F - 45.0 °F 93% 29.79 in 4.0 mi SSE 16.1 mph 27.6 mph 0.05 in Rain Light Rain
1:25 PM 46.4 °F 40.1 °F 44.6 °F 93% 29.77 in 2.5 mi SSE 15.0 mph 28.8 mph 0.04 in Rain Light Rain
1:32 PM 46.4 °F 42.4 °F 46.4 °F 100% 29.78 in 5.0 mi SSE 8.1 mph 25.3 mph 0.04 in Rain Light Rain
1:53 PM 46.9 °F - 46.0 °F 97% 29.80 in 3.0 mi SSE 12.7 mph 29.9 mph 0.05 in Rain Light Rain
2:37 PM 46.4 °F 39.5 °F 44.6 °F 93% 29.79 in 2.5 mi SSE 17.3 mph 27.6 mph 0.07 in Rain Rain
2:46 PM 46.4 °F 40.7 °F 44.6 °F 93% 29.79 in 4.0 mi SSE 12.7 mph 24.2 mph 0.09 in Rain Light Rain
2:53 PM 46.0 °F 40.2 °F 45.0 °F 96% 29.80 in 6.0 mi SSE 12.7 mph 20.7 mph 0.09 in Rain Light Rain
3:53 PM 46.9 °F - 45.0 °F 93% 29.80 in 3.0 mi SSE 18.4 mph 24.2 mph 0.08 in Rain Light Rain
4:24 PM 46.4 °F 40.7 °F 46.4 °F 100% 29.79 in 2.5 mi SSE 12.7 mph 27.6 mph 0.04 in Rain Light Rain
4:50 PM 46.4 °F 41.9 °F 46.4 °F 100% 29.78 in 3.0 mi SSE 9.2 mph 32.2 mph 0.06 in Rain Light Rain
4:53 PM 46.9 °F - 46.0 °F 97% 29.79 in 3.0 mi SSE 17.3 mph 27.6 mph 0.06 in Rain Light Rain
5:00 PM 46.4 °F 38.7 °F 46.4 °F 100% 29.78 in 2.5 mi SSE 20.7 mph 29.9 mph 0.00 in Rain Light Rain
5:07 PM 46.4 °F 39.5 °F 46.4 °F 100% 29.79 in 3.0 mi SSE 17.3 mph 32.2 mph 0.01 in Rain Light Rain
5:53 PM 46.9 °F - 46.0 °F 97% 29.78 in 5.0 mi SSE 17.3 mph 31.1 mph 0.04 in Rain Light Rain
6:53 PM 48.0 °F - 46.0 °F 93% 29.78 in 6.0 mi SSE 18.4 mph 34.5 mph 0.04 in Rain Light Rain
7:53 PM 48.0 °F - 46.0 °F 93% 29.79 in 7.0 mi SSE 15.0 mph 38.0 mph 0.05 in Rain Light Rain
8:46 PM 48.2 °F - 46.4 °F 93% 29.78 in 6.0 mi SSE 20.7 mph 38.0 mph 0.06 in Rain Light Rain
8:53 PM 48.0 °F - 46.0 °F 93% 29.78 in 5.0 mi SSE 19.6 mph 38.0 mph 0.08 in Rain Light Rain
9:53 PM 48.0 °F - 45.0 °F 89% 29.78 in 7.0 mi SSE 13.8 mph 24.2 mph 0.05 in Rain Light Rain
10:53 PM 48.0 °F - 45.0 °F 89% 29.77 in 10.0 mi SE 18.4 mph 26.5 mph 0.02 in Rain Light Rain
11:53 PM 46.9 °F - 45.0 °F 93% 29.78 in 8.0 mi SSE 16.1 mph 27.6 mph 0.03 in Rain Light Rain